Temp
79 68 64 70 71 76 75 71 69 74 79 73 68 68 74 77 76 74 75 69 65 64 65 69 71 71 75 74 75 73 72 71 70 69 66 66 65 66 67 67 67 67 67 67
72 66 76 82 79 76 74 68 66 73 79 73 70 70 75 75 73 75 75 62 62 61 64 68 65 68 73 75 72 71 69 69 68 66 64 64 62 63 62 62 63 64 65 65
69 74 86 82 77 75 70 67 67 67 73 72 68 64 65 73 76 77 77 67 65 64 64 64 66 68 72 67 66 66 67 67 65 65 64 62 62 61 59 60 60 61 63 63
72 81 81 75 75 74 64 75 75 72 64 54 66 49 61 67 69 73 73 74 74 67 67 65 66 68 68 66 67 69 66 65 66 65 62 61 57 55 57 57 58 58 61 61
71 75 74 73 74 78 69 77 72 70 62 56 64 53 57 67 65 67 70 73 73 71 67 65 65 69 72 69 70 69 66 65 65 64 62 60 58 57 57 57 56 56 57 59
74 84 81 75 82 79 80 71 67 64 59 49 60 59 55 59 64 67 72 73 76 70 64 65 68 68 69 71 69 66 65 64 65 63 62 59 58 56 55 54 54 54 54 55
74 75 79 83 73 75 70 59 47 46 47 49 63 59 53 65 70 71 70 71 73 68 69 68 66 67 68 67 68 67 64 63 62 62 61 60 57 56 55 54 52 52 52 53
64 60 75 82 73 65 65 59 48 39 41 48 63 55 60 71 73 75 74 73 74 72 69 70 69 68 67 68 66 67 64 61 62 61 59 57 57 55 55 54 53 51 52 57
61 65 81 82 80 75 65 56 63 53 53 47 56 61 64 70 69 72 71 70 67 66 70 72 69 69 67 66 66 63 62 61 60 60 58 57 56 55 54 54 53 53 57 59
66 57 76 78 78 75 68 70 54 50 40 40 51 55 55 64 66 68 66 67 66 69 70 71 69 68 66 66 63 63 62 60 59 59 58 57 56 55 54 56 56 57 57 56
68 61 64 72 66 64 64 59 58 55 52 43 41 49 62 62 64 63 65 66 65 66 67 68 68 66 65 64 63 61 61 60 59 59 57 55 55 56 57 53 54 56 56 55
66 60 54 62 73 75 67 61 59 44 47 49 47 47 67 65 66 66 67 69 66 66 68 69 66 65 63 62 61 60 59 59 58 58 56 55 55 54 56 56 56 56 55 55
64 56 47 55 62 69 68 70 65 57 52 48 41 47 71 69 67 68 65 66 68 68 67 66 65 64 62 60 60 60 59 58 57 57 55 54 55 52 55 55 55 55 54 53
67 59 55 47 56 62 60 66 66 57 44 49 52 56 64 63 64 64 64 66 66 67 67 64 63 61 60 60 59 59 58 57 56 56 54 56 55 55 55 55 54 53 53 51
63 54 57 62 67 69 66 66 67 59 58 50 55 57 60 62 63 65 66 67 67 66 67 65 61 59 58 57 58 59 57 56 54 53 52 56 55 56 55 53 52 53 52 51
63 54 58 58 67 68 65 68 66 66 66 63 62 57 64 66 67 67 67 68 65 66 66 65 63 61 59 58 58 58 56 54 53 51 52 56 55 55 53 52 52 51 51 51
59 55 52 48 62 62 53 62 65 64 65 61 54 58 63 63 66 64 64 65 64 64 64 63 61 59 57 57 57 55 54 53 51 50 56 55 54 54 52 52 51 50 50 50
59 57 55 48 53 41 61 69 72 66 67 65 64 65 65 65 63 65 65 63 64 66 64 61 59 57 57 56 55 55 54 51 50 50 54 55 54 53 52 51 50 50 50 49
60 56 50 45 46 56 63 61 63 63 59 67 63 64 66 67 64 64 69 67 64 63 62 60 59 59 56 55 55 54 52 50 49 52 53 54 54 52 51 49 49 49 49 49
62 57 51 48 42 42 52 61 69 66 48 66 65 61 61 63 54 56 66 69 65 64 63 61 61 59 56 55 54 51 49 47 46 52 52 54 54 51 49 49 49 49 50 50
51 53 48 45 43 51 59 65 68 46 47 65 66 65 61 57 59 64 65 65 66 64 63 63 60 56 55 54 52 49 46 45 52 53 53 53 53 50 49 49 50 49 49 48
52 46 45 47 42 42 67 63 54 55 59 64 65 64 61 63 65 65 66 65 64 64 63 62 58 56 54 53 50 47 45 48 53 50 51 53 51 50 50 48 48 48 47 47
52 55 47 46 48 58 63 59 59 62 61 62 61 63 64 63 65 66 65 63 67 64 62 61 58 55 53 52 50 46 46 50 51 49 49 52 50 49 49 46 46 46 45 46
62 61 54 52 60 62 63 64 63 63 61 63 64 59 58 57 63 62 65 64 64 63 60 59 57 54 51 52 51 47 48 51 51 48 51 51 48 48 48 46 44 44 42 44
61 60 57 57 61 64 65 65 65 65 66 65 64 62 61 58 60 62 64 63 63 62 59 58 55 53 52 52 50 49 53 53 51 51 51 49 48 48 48 45 42 43 43 41
60 57 52 50 59 59 59 63 68 66 66 66 64 63 64 64 63 64 62 62 62 61 58 56 54 54 52 52 50 50 54 52 50 49 51 48 47 47 47 45 46 41 40 40
MSLP
1006.98 1007.72 1007.83 1007.83 1007.65 1007.56 1007.67 1007.84 1007.91 1007.69 1007.77 1007.80 1007.96 1008.07 1008.09 1007.99 1008.78 1010.12 1011.13 1013.19 1015.59 1016.57 1016.61 1016.34 1014.49 1016.01 1016.93 1016.36 1016.01 1016.59 1017.27 1017.37 1017.74 1018.16 1018.66 1018.74 1019.11 1018.68 1018.33 1018.21 1018.17 1018.07 1018.05 1018.06
1007.57 1007.51 1007.47 1006.94 1007.16 1007.47 1007.94 1008.65 1008.85 1008.38 1008.19 1008.62 1008.73 1008.82 1008.45 1009.01 1009.64 1010.25 1011.36 1013.97 1015.23 1016.61 1016.82 1016.36 1015.89 1016.14 1016.95 1016.43 1016.56 1017.33 1017.71 1018.23 1018.50 1018.59 1018.90 1019.26 1019.37 1018.95 1018.82 1018.64 1018.44 1018.35 1018.39 1018.40
1007.21 1007.10 1006.66 1006.91 1007.27 1007.59 1008.44 1009.10 1009.38 1009.61 1009.19 1009.20 1009.57 1009.90 1009.16 1009.57 1009.65 1010.20 1011.09 1013.19 1014.99 1015.96 1016.65 1016.75 1016.71 1016.78 1017.25 1017.09 1016.96 1017.56 1017.73 1018.36 1018.65 1018.67 1018.87 1019.29 1019.05 1018.87 1018.96 1018.76 1018.60 1018.39 1018.21 1018.21
1006.65 1006.76 1006.89 1007.04 1007.54 1007.94 1008.74 1009.27 1009.74 1010.13 1010.54 1010.58 1010.34 1011.46 1010.95 1010.49 1010.56 1010.88 1011.44 1012.18 1013.45 1015.64 1016.18 1015.95 1016.34 1016.66 1016.96 1017.11 1016.94 1017.53 1017.77 1018.23 1018.48 1018.66 1019.05 1019.18 1019.13 1019.20 1019.04 1018.74 1018.57 1018.56 1018.34 1018.24
1006.95 1006.93 1007.03 1007.43 1007.99 1008.43 1009.11 1009.45 1010.15 1010.62 1011.13 1011.38 1010.93 1011.60 1011.47 1011.16 1011.55 1011.80 1011.98 1012.70 1013.08 1014.62 1015.42 1016.15 1016.08 1015.92 1016.11 1016.62 1017.29 1017.43 1017.62 1018.29 1018.44 1018.74 1018.65 1018.74 1018.86 1018.82 1018.52 1018.52 1018.57 1018.54 1018.39 1018.13
1007.03 1006.86 1007.22 1007.84 1008.06 1008.50 1009.20 1010.11 1010.53 1010.49 1011.36 1012.53 1011.56 1011.61 1012.34 1012.13 1012.13 1012.35 1012.43 1012.83 1013.04 1014.09 1015.19 1015.56 1015.56 1016.05 1016.26 1016.66 1017.12 1017.65 1017.85 1018.03 1018.14 1018.28 1018.32 1018.41 1018.57 1018.62 1018.72 1018.76 1018.90 1018.78 1018.50 1018.29
1007.32 1007.39 1007.72 1008.01 1008.52 1008.98 1009.92 1011.17 1012.54 1013.22 1013.44 1013.12 1011.90 1012.16 1012.77 1012.31 1012.19 1012.44 1012.89 1013.26 1013.41 1014.27 1015.06 1015.69 1016.20 1016.33 1016.77 1016.81 1016.97 1017.29 1017.49 1017.92 1018.04 1018.05 1018.09 1018.06 1018.30 1018.49 1018.75 1018.83 1018.82 1018.74 1018.44 1018.05
1008.37 1008.45 1008.22 1008.53 1009.06 1009.83 1010.75 1011.90 1013.71 1014.96 1015.22 1014.52 1012.93 1013.19 1013.04 1012.50 1012.29 1012.33 1012.61 1012.96 1013.34 1013.99 1014.64 1015.12 1015.59 1015.93 1016.21 1016.46 1016.66 1016.83 1017.34 1017.74 1017.83 1017.95 1017.97 1018.15 1018.22 1018.37 1018.47 1018.48 1018.44 1018.36 1018.21 1017.77
1009.18 1009.16 1008.74 1008.86 1009.21 1009.92 1010.92 1012.04 1013.06 1014.60 1014.92 1015.14 1014.00 1013.77 1012.81 1012.55 1012.73 1012.90 1013.39 1013.53 1013.66 1013.87 1014.15 1014.61 1015.13 1015.26 1016.00 1016.28 1016.47 1016.98 1017.45 1017.81 1017.89 1017.88 1018.00 1018.16 1018.28 1018.31 1018.28 1018.20 1018.17 1018.11 1017.92 1017.70
1009.84 1010.10 1009.60 1009.40 1009.58 1010.27 1010.83 1011.95 1013.35 1014.72 1016.09 1016.04 1014.77 1014.11 1013.67 1013.43 1013.35 1013.46 1013.66 1014.14 1014.35 1014.42 1014.56 1014.87 1015.29 1015.68 1016.04 1016.40 1017.00 1017.30 1017.58 1017.77 1017.78 1017.80 1017.93 1018.11 1018.07 1018.02 1018.15 1018.26 1018.26 1018.17 1017.79 1017.50
1010.06 1010.72 1010.90 1010.34 1010.61 1010.64 1011.17 1012.19 1013.44 1014.67 1015.81 1016.48 1016.16 1014.81 1013.50 1013.27 1013.31 1013.76 1013.94 1014.25 1014.30 1014.61 1014.73 1015.04 1015.47 1016.01 1016.41 1016.75 1017.09 1017.41 1017.55 1017.69 1017.82 1017.87 1018.00 1018.08 1018.08 1018.05 1018.02 1018.10 1017.73 1017.73 1017.50 1017.19
1010.85 1011.40 1011.97 1011.79 1011.03 1010.93 1011.38 1012.20 1013.52 1015.41 1016.49 1016.82 1016.54 1015.05 1013.24 1013.50 1013.49 1013.72 1013.96 1013.99 1014.13 1014.16 1014.57 1015.07 1015.71 1016.24 1016.76 1017.15 1017.32 1017.51 1017.70 1017.89 1018.05 1018.06 1018.11 1018.15 1018.13 1018.18 1018.18 1018.02 1017.67 1017.38 1017.14 1016.92
1011.62 1012.27 1012.81 1012.58 1012.22 1011.49 1011.79 1012.20 1012.92 1014.11 1015.27 1016.30 1016.56 1015.30 1013.29 1013.00 1013.54 1013.79 1014.15 1014.21 1014.38 1014.69 1015.12 1015.71 1016.15 1016.69 1017.14 1017.52 1017.58 1017.71 1017.90 1018.09 1018.12 1018.11 1018.13 1018.24 1018.28 1018.31 1018.15 1017.80 1017.48 1017.14 1016.85 1016.60
1011.84 1012.79 1013.20 1013.67 1013.06 1012.56 1012.40 1012.23 1012.51 1013.36 1014.92 1015.31 1015.13 1014.31 1013.57 1014.02 1013.84 1013.84 1013.97 1014.08 1014.40 1014.89 1015.48 1016.16 1016.75 1017.15 1017.55 1017.74 1017.78 1017.90 1018.02 1018.23 1018.25 1018.23 1018.29 1018.30 1018.33 1018.20 1017.87 1017.56 1017.22 1016.89 1016.58 1016.35
1012.87 1013.54 1013.51 1013.61 1013.20 1012.69 1012.37 1012.09 1012.37 1012.82 1013.45 1014.25 1014.18 1013.88 1013.82 1013.54 1013.57 1013.72 1013.99 1014.28 1014.87 1015.44 1015.86 1016.56 1017.25 1017.62 1017.83 1018.00 1017.97 1018.01 1018.30 1018.47 1018.39 1018.51 1018.35 1018.25 1018.16 1017.86 1017.54 1017.29 1017.00 1016.70 1016.40 1016.02
1013.33 1014.10 1014.29 1014.25 1013.75 1013.22 1012.61 1012.08 1011.88 1012.17 1012.63 1012.81 1012.70 1013.28 1013.11 1013.08 1013.10 1013.72 1014.07 1014.46 1015.26 1015.87 1016.38 1017.03 1017.42 1017.72 1018.03 1018.15 1018.17 1018.36 1018.48 1018.66 1018.68 1018.67 1018.42 1018.14 1018.04 1017.69 1017.36 1017.11 1016.83 1016.50 1016.11 1015.73
1014.22 1014.83 1015.26 1015.18 1014.58 1013.92 1013.26 1012.33 1011.97 1011.98 1012.31 1012.79 1013.27 1013.33 1013.00 1013.40 1013.73 1014.15 1014.42 1014.96 1015.46 1016.10 1016.54 1017.09 1017.53 1017.82 1018.00 1018.07 1018.14 1018.42 1018.54 1018.73 1018.82 1018.70 1018.45 1018.13 1017.92 1017.54 1017.23 1016.96 1016.66 1016.25 1015.86 1015.49
1014.21 1015.08 1015.71 1016.11 1015.62 1015.09 1013.40 1013.22 1012.10 1012.37 1012.57 1012.80 1013.23 1013.24 1013.29 1013.68 1014.26 1014.36 1014.89 1015.36 1015.54 1015.69 1016.35 1016.95 1017.29 1017.58 1017.67 1017.84 1018.11 1018.24 1018.59 1018.74 1018.69 1018.68 1018.62 1018.17 1017.84 1017.49 1017.17 1016.83 1016.45 1016.02 1015.63 1015.29
1014.57 1015.52 1016.74 1016.95 1016.72 1015.61 1014.37 1014.63 1013.98 1013.50 1013.82 1013.56 1013.82 1013.90 1013.89 1013.76 1013.90 1014.48 1014.62 1014.84 1015.10 1015.62 1016.14 1016.61 1016.97 1017.17 1017.61 1017.87 1018.06 1018.34 1018.68 1018.89 1018.89 1018.80 1018.50 1018.19 1017.72 1017.40 1017.09 1016.69 1016.24 1015.81 1015.40 1015.03
1014.92 1016.61 1018.33 1017.94 1017.86 1016.89 1016.35 1015.60 1014.51 1014.32 1014.89 1015.21 1014.51 1014.31 1014.25 1014.19 1014.66 1014.89 1014.48 1014.36 1014.76 1015.18 1015.59 1016.10 1016.54 1017.02 1017.56 1017.90 1018.16 1018.58 1018.97 1019.12 1019.12 1018.79 1018.46 1018.03 1017.61 1017.39 1017.02 1016.59 1016.05 1015.60 1015.19 1014.80
1015.61 1016.82 1018.07 1017.98 1017.96 1016.90 1015.89 1015.49 1014.63 1015.69 1015.93 1014.94 1014.63 1014.51 1014.64 1014.82 1014.71 1014.56 1014.34 1014.23 1014.36 1014.71 1015.26 1015.79 1016.46 1017.26 1017.74 1018.18 1018.43 1018.81 1019.18 1019.39 1019.07 1018.62 1018.32 1017.80 1017.41 1017.29 1016.92 1016.47 1016.01 1015.57 1015.20 1014.82
1014.82 1016.07 1017.33 1018.14 1018.33 1017.29 1015.38 1015.26 1015.71 1015.62 1014.99 1015.16 1014.41 1014.39 1014.61 1014.72 1014.56 1014.28 1014.14 1014.28 1014.39 1014.70 1015.22 1015.68 1016.52 1017.16 1017.69 1018.33 1018.79 1019.21 1019.32 1019.16 1018.91 1018.54 1018.17 1017.67 1017.48 1017.21 1016.81 1016.44 1016.23 1015.77 1015.46 1015.18
1014.30 1014.57 1016.33 1017.85 1017.26 1015.59 1015.27 1014.87 1015.04 1015.09 1015.21 1014.91 1014.68 1014.89 1015.21 1015.31 1014.92 1014.47 1014.40 1014.20 1014.02 1014.50 1014.88 1015.25 1016.16 1017.10 1017.83 1018.25 1018.65 1019.46 1019.46 1019.03 1018.80 1018.45 1018.04 1017.61 1017.52 1017.22 1016.89 1016.76 1016.44 1016.11 1015.84 1015.56
1014.04 1014.57 1015.52 1016.62 1015.60 1015.40 1014.33 1014.75 1014.81 1015.03 1015.06 1015.02 1014.95 1014.97 1015.29 1015.58 1014.95 1015.21 1014.73 1014.47 1014.38 1014.40 1014.83 1015.39 1016.20 1017.18 1018.02 1018.27 1018.76 1019.24 1019.30 1018.98 1018.65 1018.36 1017.96 1017.70 1017.62 1017.31 1017.09 1017.15 1016.90 1016.58 1016.41 1016.11
1014.02 1014.02 1014.88 1015.07 1014.77 1014.81 1014.89 1014.92 1014.86 1014.87 1014.77 1014.65 1014.66 1014.95 1015.12 1015.14 1015.06 1015.10 1014.68 1014.52 1014.41 1014.54 1014.96 1015.30 1016.20 1017.07 1017.90 1018.22 1018.73 1018.87 1018.93 1018.83 1018.61 1018.29 1017.97 1017.94 1017.70 1017.47 1017.50 1017.51 1017.35 1017.02 1016.89 1016.73
1014.19 1014.41 1014.76 1015.14 1015.10 1014.96 1014.91 1014.65 1014.51 1014.56 1014.60 1014.64 1014.69 1014.73 1014.75 1014.87 1014.82 1014.37 1014.43 1014.19 1014.19 1014.52 1015.10 1015.52 1016.21 1016.81 1017.54 1018.05 1018.58 1018.76 1018.65 1018.66 1018.56 1018.27 1018.06 1018.05 1017.81 1017.77 1017.69 1017.67 1017.52 1017.40 1017.15 1016.97
Wind_Speed
9 2 6 8 4 7 8 8 8 6 9 5 2 1 5 6 3 10 9 20 14 11 8 11 12 4 6 8 9 9 7 4 2 2 3 3 4 4 5 7 6 7 7 6
6 7 5 5 1 3 7 9 9 7 8 8 9 10 9 6 6 9 10 19 17 14 15 12 4 4 9 7 9 12 9 6 5 3 3 3 2 2 1 3 5 6 6 7
8 4 6 4 5 4 8 8 8 6 9 9 5 11 1 5 9 9 9 19 16 21 16 9 5 6 5 8 10 8 6 6 5 6 4 2 3 3 3 4 3 5 6 6
1 5 5 3 7 7 4 6 7 8 5 5 1 4 4 5 6 7 6 7 8 18 9 7 11 8 9 7 8 9 8 8 6 5 2 3 3 2 3 1 1 3 6 6
2 5 3 8 7 7 3 6 7 7 6 1 12 5 4 7 7 6 8 8 8 15 13 5 7 7 7 10 8 8 8 6 5 5 5 3 1 2 1 2 4 4 4 6
2 5 6 5 5 2 5 6 10 8 3 2 11 6 3 3 5 5 6 6 6 15 9 9 7 5 2 6 8 8 8 5 6 4 1 3 0 3 3 3 3 3 3 4
6 5 6 5 6 8 10 8 6 8 7 4 6 6 5 7 9 9 7 7 9 15 13 9 7 5 7 8 8 7 7 3 4 6 4 3 5 5 4 2 2 4 3 3
4 5 7 4 6 2 4 6 5 2 2 7 10 5 3 8 8 7 8 6 6 5 8 9 10 9 9 8 8 5 6 6 5 4 4 6 5 2 2 2 3 3 4 3
5 3 7 7 2 5 6 5 4 1 5 3 1 4 1 6 4 7 8 7 6 4 7 8 8 8 8 7 5 9 8 5 5 4 5 4 4 3 3 4 3 3 4 6
2 3 5 2 2 6 4 3 5 3 1 5 7 3 3 4 5 8 9 9 8 8 9 8 7 7 6 8 8 8 7 5 3 5 4 3 1 3 5 5 5 7 7 6
4 6 7 7 2 4 3 2 3 3 4 4 4 3 5 5 6 8 6 6 7 6 4 4 7 7 8 7 8 7 7 7 6 5 3 5 5 5 4 3 2 6 9 8
1 4 2 6 9 7 4 1 4 7 6 1 4 8 3 9 7 8 6 6 5 4 1 3 8 8 8 8 7 7 6 7 6 6 5 6 6 5 5 6 7 8 8 6
2 0 2 8 8 6 3 2 5 4 4 5 5 7 2 8 8 7 8 6 7 7 7 7 8 7 7 7 7 7 7 5 5 6 6 5 5 6 7 8 8 9 7 5
5 2 6 7 7 5 5 5 5 2 4 5 7 8 9 5 7 6 6 6 4 8 8 7 7 7 7 6 6 6 6 6 5 6 6 5 5 7 8 8 8 8 5 6
4 3 1 5 7 8 10 8 9 4 4 2 7 4 5 5 6 6 6 5 9 8 9 8 6 7 6 7 6 6 6 5 4 5 5 6 5 7 7 6 6 8 8 9
2 2 5 5 8 12 12 12 5 6 6 14 6 1 4 5 7 8 6 7 8 9 9 8 7 7 6 5 5 6 5 5 6 6 7 5 6 7 6 5 8 8 9 9
6 4 2 4 8 9 8 6 6 1 2 5 5 4 4 6 8 6 6 9 9 8 7 6 6 5 4 3 5 4 4 5 6 6 7 5 6 8 5 7 8 9 9 8
5 4 3 4 5 5 11 19 7 3 6 8 6 7 5 8 8 11 8 7 7 7 6 4 5 3 2 3 4 3 6 5 5 6 8 8 9 11 6 9 8 8 7 7
7 3 2 2 4 8 8 13 5 6 4 6 6 10 8 7 9 5 5 5 8 7 5 6 5 3 4 3 2 5 5 6 6 7 8 9 9 7 9 9 9 8 7 6
8 9 3 4 2 4 2 4 11 8 5 17 6 4 3 5 4 4 5 6 8 9 8 6 5 4 5 2 6 7 6 6 6 7 8 9 9 5 8 9 9 7 7 6
4 3 7 4 3 5 1 3 3 7 11 10 1 4 3 1 5 3 4 2 7 8 8 7 7 6 4 6 7 6 7 5 5 7 8 9 5 6 7 8 7 8 6 4
10 7 4 1 2 6 6 3 6 9 4 9 3 2 3 4 6 5 5 5 3 8 7 8 7 6 7 7 7 6 5 4 5 6 7 8 4 5 6 8 7 6 5 4
2 7 8 9 9 7 6 6 2 2 5 4 2 7 10 10 10 7 6 4 2 10 8 7 8 8 7 7 7 6 3 5 6 6 7 6 5 6 6 7 7 4 5 3
5 4 3 5 6 10 7 5 3 1 2 4 5 4 5 4 7 13 9 6 6 5 7 7 8 8 7 7 7 5 3 5 6 6 8 4 5 7 4 5 4 3 4 4
2 2 3 1 6 8 8 5 8 6 4 1 2 1 2 4 7 12 4 5 6 4 6 8 8 7 7 7 7 5 3 5 6 6 6 4 4 5 4 3 4 4 2 2
2 2 3 2 3 4 2 4 6 6 5 5 4 3 3 6 8 6 5 5 3 5 5 7 8 8 7 7 7 3 3 5 5 5 4 3 3 3 3 2 4 8 6 8
Wind_Direction
271 192 234 245 80 19 359 3 345 26 24 21 23 47 304 288 168 55 48 109 118 143 163 191 181 187 256 143 133 148 130 190 120 44 35 17 357 355 3 21 25 47 27 13
303 253 265 64 128 60 15 33 349 354 12 31 337 310 263 67 92 80 60 130 137 156 181 198 227 219 237 156 79 75 47 43 68 74 52 60 338 337 36 3 19 36 24 13
208 189 78 37 337 41 55 36 357 345 334 341 351 324 284 81 80 69 53 135 146 163 180 206 201 231 98 98 113 125 128 115 92 84 64 6 5 1 11 347 356 350 5 342
179 104 48 334 38 55 74 33 339 323 358 290 20 271 32 105 102 93 84 96 119 163 186 168 151 117 123 143 149 151 146 136 127 122 121 185 202 228 239 248 325 346 333 331
34 115 134 61 74 39 308 336 294 276 276 249 291 98 260 82 59 74 66 65 47 145 143 128 110 126 140 154 156 156 121 116 135 169 177 179 235 246 266 350 357 333 341 346
130 87 48 61 14 142 318 351 322 292 146 20 256 122 307 85 105 67 63 73 72 107 109 148 171 189 114 97 97 108 119 128 159 160 125 63 41 333 19 338 344 326 309 296
294 119 93 51 343 34 25 40 344 360 7 231 336 9 199 78 66 79 72 49 49 142 136 149 141 135 120 98 102 121 125 147 93 67 58 8 50 51 22 360 308 312 292 294
93 4 135 128 93 14 339 99 127 313 318 272 310 107 193 129 125 136 138 111 67 91 125 134 155 136 133 128 119 126 80 84 62 55 18 91 83 59 333 297 293 289 285 282
54 58 101 88 31 104 327 29 206 105 277 20 177 46 2 144 139 76 62 46 7 319 87 90 136 121 115 118 93 79 77 67 57 24 66 63 51 24 302 310 312 290 309 317
47 38 350 148 169 49 104 258 16 350 331 330 332 114 167 66 76 67 45 31 29 43 42 37 64 95 90 74 91 80 79 75 37 51 62 75 28 350 11 14 -0 333 319 318
95 112 301 4 101 194 315 332 354 123 118 168 328 289 180 141 135 115 107 100 91 69 57 67 82 95 93 90 82 75 55 38 22 36 36 29 352 44 38 326 325 317 304 297
163 121 64 283 309 81 34 302 111 111 296 143 165 275 189 113 102 132 117 102 131 135 224 4 90 86 81 76 66 57 39 32 37 31 26 17 29 18 351 328 321 311 297 295
352 128 49 344 358 358 61 292 187 166 100 200 144 263 282 95 74 71 84 52 46 58 63 67 65 74 79 74 61 49 40 21 37 27 11 18 21 7 333 319 311 307 295 286
88 71 148 186 234 266 280 254 295 156 122 226 221 247 287 101 109 103 96 87 64 61 67 78 66 68 78 69 58 48 17 53 31 16 359 39 10 333 313 310 310 302 291 291
85 169 294 294 299 310 302 310 290 266 249 220 250 269 118 127 88 84 81 61 75 61 51 60 71 69 64 53 40 27 30 49 32 28 4 349 343 314 304 301 308 316 305 299
75 292 9 316 307 285 281 279 304 319 284 307 199 125 103 81 94 72 48 50 75 61 56 54 70 68 59 47 32 37 3 47 42 15 346 348 323 312 303 311 317 314 313 310
148 141 55 270 309 322 328 293 298 260 55 82 63 271 16 56 78 56 33 91 87 82 76 60 91 97 88 50 69 23 27 63 39 359 344 334 328 321 316 316 321 318 314 310
170 168 157 246 324 303 256 2 338 15 46 44 25 360 26 102 95 80 76 103 106 102 90 92 102 98 101 79 55 14 69 61 25 9 345 336 329 327 318 323 319 316 311 309
26 81 19 169 242 273 7 355 339 279 36 31 52 30 39 19 93 76 112 114 126 132 142 139 142 149 104 95 57 62 42 46 28 7 329 329 325 320 327 325 322 317 310 309
101 95 83 355 258 251 219 306 14 32 17 330 32 40 45 40 32 244 199 170 157 155 152 152 156 101 109 91 70 64 54 46 12 332 324 317 322 327 329 321 318 308 304 301
71 96 205 226 235 288 254 230 59 91 237 245 305 359 301 219 189 216 11 351 170 170 169 142 110 123 114 77 76 57 62 25 328 316 318 315 321 330 328 317 322 339 348 349
171 162 175 87 26 305 177 51 156 219 229 273 316 351 357 39 358 355 30 3 326 158 141 135 116 106 95 87 70 61 53 330 316 319 313 322 354 338 334 332 340 343 351 350
215 157 170 157 204 225 215 193 129 165 236 296 9 10 15 13 354 330 307 299 230 171 163 129 123 110 106 92 84 73 347 350 315 325 314 331 352 350 346 350 345 356 356 354
59 127 139 99 290 252 234 131 114 14 324 328 19 109 93 26 1 302 302 328 332 187 139 124 107 104 104 91 90 110 10 333 310 325 322 6 353 353 4 4 353 3 3 1
243 60 11 137 39 60 79 124 167 185 182 131 135 147 159 173 262 264 312 333 320 192 137 120 115 111 116 100 98 98 36 329 318 322 326 27 352 358 9 16 10 7 32 328
3 316 75 146 21 73 33 13 20 11 357 348 19 349 246 214 268 285 292 287 303 163 135 111 115 112 117 101 100 107 14 321 315 322 0 12 351 359 357 24 49 42 47 53